Weather History for KRDG - March, 2013

Change the Weather History Date:

Monday, March 11, 2013

  Actual Average Record
Temperature  
Mean Temperature 49 °F 39 °F  
Max Temperature 59 °F 49 °F 72 °F (1977)
Min Temperature 39 °F 30 °F 12 °F (1987)
Degree Days  
Heating Degree Days 16 26  
Month to date heating degree days 274 301  
Since 1 July heating degree days 3985 4343  
Cooling Degree Days 0 0  
Month to date cooling degree days 0 0  
Year to date cooling degree days 0 0  
Moisture  
Dew Point 40 °F    
Average Humidity 63    
Maximum Humidity 89    
Minimum Humidity 37    
Precipitation  
Precipitation T in 0.10 in 1.30 in (1952)
Month to date precipitation 0.09 1.01  
Year to date precipitation 5.03 6.54  
Sea Level Pressure  
Sea Level Pressure 30.16 in    
Wind  
Wind Speed 8 mph (SSE)    
Max Wind Speed 17 mph    
Max Gust Speed 24 mph    
Visibility 10 miles    
Events Rain    
T = Trace of Precipitation, MM = Missing Value Source: NWS Daily Summary

Daily Weather History Graph

Daily Weather History Graph

Search for Another Location

Airport or City:

Trip Planner

Search our weather history database for the weather conditions in past years. The results will help you decide how hot, cold, wet, or windy it might be!

Date:

Astronomy

Mar. 11, 2013 Rise Set
Actual Time 7:21 AM EDT 7:06 PM EDT
Civil Twilight 6:54 AM EDT 7:33 PM EDT
Nautical Twilight 6:22 AM EDT 8:05 PM EDT
Astronomical Twilight 5:51 AM EDT 8:37 PM EDT
Moon 6:53 AM EDT (3/11) 7:16 PM EDT (3/11)
Length of Visible Light 12h 39m
Length of Day
11h 45m
Waning Crescent, 0% of the Moon is Illuminated
Mar 11
Waning Crescent
Mar 11
New
Mar 19
First Quarter
Mar 27
Full
Apr 3
Last Quarter

Hourly Weather History & Observations

Time (EDT) Temp. Windchill Dew Point Humidity Pressure Visibility Wind Dir Wind Speed Gust Speed Precip Events Conditions
12:54 AM 41.0 °F 35.8 °F 34.0 °F 76% 30.27 in 10.0 mi South 8.1 mph - N/A   Clear
1:54 AM 39.9 °F 35.1 °F 34.0 °F 79% 30.26 in 10.0 mi SE 6.9 mph - N/A   Clear
2:54 AM 39.0 °F 35.7 °F 34.0 °F 82% 30.27 in 10.0 mi SSE 4.6 mph - N/A   Partly Cloudy
3:08 AM 39.2 °F 37.0 °F 35.6 °F 87% 30.24 in 10.0 mi SE 3.5 mph - N/A   Mostly Cloudy
3:54 AM 39.9 °F 36.7 °F 36.0 °F 86% 30.23 in 10.0 mi ESE 4.6 mph - N/A   Overcast
4:23 AM 41.0 °F - 37.4 °F 87% 30.20 in 10.0 mi Calm Calm - N/A   Overcast
4:54 AM 41.0 °F 38.0 °F 37.9 °F 89% 30.22 in 9.0 mi SSE 4.6 mph - N/A   Overcast
5:34 AM 41.0 °F 39.0 °F 37.4 °F 87% 30.20 in 8.0 mi SE 3.5 mph - N/A   Overcast
5:54 AM 41.0 °F 39.0 °F 37.9 °F 89% 30.22 in 8.0 mi SE 3.5 mph - N/A   Overcast
6:54 AM 42.1 °F - 39.0 °F 89% 30.21 in 8.0 mi Calm Calm - N/A   Overcast
7:22 AM 41.0 °F 37.1 °F 37.4 °F 87% 30.19 in 10.0 mi SSE 5.8 mph - N/A   Scattered Clouds
7:54 AM 42.1 °F 37.1 °F 37.9 °F 85% 30.21 in 10.0 mi SSE 8.1 mph - N/A   Partly Cloudy
8:54 AM 44.1 °F 39.5 °F 39.0 °F 82% 30.20 in 10.0 mi SE 8.1 mph - N/A   Scattered Clouds
9:30 AM 44.6 °F 40.7 °F 39.2 °F 81% 30.19 in 10.0 mi SSE 6.9 mph - N/A   Mostly Cloudy
9:54 AM 46.0 °F 43.1 °F 39.9 °F 79% 30.21 in 10.0 mi South 5.8 mph - N/A   Scattered Clouds
10:54 AM 48.9 °F - 41.0 °F 74% 30.20 in 10.0 mi Variable 3.5 mph - N/A   Scattered Clouds
11:01 AM 48.2 °F - 41.0 °F 76% 30.17 in 10.0 mi ESE 3.5 mph - N/A   Mostly Cloudy
11:15 AM 48.2 °F - 41.0 °F 76% 30.17 in 10.0 mi SSE 3.5 mph - N/A   Scattered Clouds
11:54 AM 50.0 °F - 41.0 °F 71% 30.18 in 10.0 mi Variable 3.5 mph - N/A   Clear
12:54 PM 54.0 °F - 39.9 °F 59% 30.17 in 10.0 mi Variable 4.6 mph - N/A   Clear
1:54 PM 57.9 °F - 37.0 °F 46% 30.14 in 10.0 mi South 6.9 mph - N/A   Clear
2:54 PM 59.0 °F - 34.0 °F 39% 30.10 in 10.0 mi SSE 10.4 mph 16.1 mph N/A   Scattered Clouds
3:54 PM 57.9 °F - 39.9 °F 51% 30.08 in 10.0 mi SSE 9.2 mph 17.3 mph N/A   Mostly Cloudy
4:54 PM 57.9 °F - 44.1 °F 60% 30.07 in 10.0 mi SSE 11.5 mph - N/A   Scattered Clouds
5:54 PM 57.0 °F - 44.1 °F 62% 30.04 in 10.0 mi SE 11.5 mph - N/A   Mostly Cloudy
7:54 PM 55.9 °F - 45.0 °F 67% 30.05 in 10.0 mi SSE 8.1 mph - N/A   Overcast
8:54 PM 55.0 °F - 46.0 °F 72% 30.03 in 10.0 mi SSE 11.5 mph 19.6 mph N/A   Clear
9:54 PM 55.0 °F - 46.9 °F 74% 30.03 in 10.0 mi SSE 12.7 mph 19.6 mph N/A   Mostly Cloudy
10:54 PM 55.0 °F - 46.9 °F 74% 30.03 in 10.0 mi SSE 9.2 mph - N/A   Overcast
11:54 PM 55.0 °F - 46.9 °F 74% 30.00 in 10.0 mi SSE 13.8 mph 24.2 mph 0.00 in Rain Light Rain